Time,TemperatureF,DewpointF,PressureIn,WindDirection,WindDirectionDegrees,WindSpeedMPH,WindSpeedGustMPH,Humidity,HourlyPrecipIn,Conditions,Clouds,dailyrainin,SoftwareType,DateUTC
2013-02-11 00:02:00,42.0,30.0,29.42,SSW,202,12.0,26.0,63,0.00,,,0.60,,2013-02-11 06:02:00,
2013-02-11 00:21:00,42.0,30.0,29.42,SW,215,16.0,24.0,61,0.00,,,0.60,,2013-02-11 06:21:00,
2013-02-11 00:32:00,41.0,29.0,29.42,SW,218,11.0,21.0,62,0.00,,,0.60,,2013-02-11 06:32:00,
2013-02-11 00:42:00,41.0,30.0,29.42,SSW,195,15.0,24.0,65,0.00,,,0.60,,2013-02-11 06:42:00,
2013-02-11 00:52:00,41.0,30.0,29.42,SSW,195,15.0,24.0,65,0.00,,,0.60,,2013-02-11 06:52:00,
2013-02-11 01:01:00,41.0,31.0,29.42,South,186,17.0,22.0,67,0.00,,,0.60,,2013-02-11 07:01:00,
2013-02-11 01:11:00,41.0,31.0,29.42,South,186,17.0,22.0,67,0.00,,,0.60,,2013-02-11 07:11:00,
2013-02-11 01:21:00,41.0,31.0,29.42,South,186,17.0,22.0,67,0.00,,,0.60,,2013-02-11 07:21:00,
2013-02-11 01:32:00,39.0,31.0,29.42,SSW,213,16.0,34.0,72,0.00,,,0.60,,2013-02-11 07:32:00,
2013-02-11 01:41:00,39.0,31.0,29.42,SSW,213,16.0,34.0,72,0.00,,,0.60,,2013-02-11 07:41:00,
2013-02-11 01:52:00,39.0,31.0,29.42,SSW,213,16.0,34.0,72,0.00,,,0.60,,2013-02-11 07:52:00,
2013-02-11 02:01:00,38.0,30.0,29.43,SW,215,18.0,37.0,74,0.00,,,0.60,,2013-02-11 08:01:00,
2013-02-11 02:11:00,38.0,31.0,29.43,SSW,200,17.0,29.0,76,0.00,,,0.60,,2013-02-11 08:11:00,
2013-02-11 02:21:00,38.0,31.0,29.43,SSW,200,17.0,29.0,76,0.00,,,0.60,,2013-02-11 08:21:00,
2013-02-11 02:31:00,37.0,30.0,29.43,SSW,199,21.0,33.0,77,0.00,,,0.60,,2013-02-11 08:31:00,
2013-02-11 02:42:00,37.0,30.0,29.43,SSW,199,21.0,33.0,77,0.00,,,0.60,,2013-02-11 08:42:00,
2013-02-11 02:52:00,37.0,30.0,29.43,SSW,199,21.0,33.0,77,0.00,,,0.60,,2013-02-11 08:52:00,
2013-02-11 03:01:00,36.0,31.0,29.44,SSW,203,11.0,24.0,81,0.00,,,0.60,,2013-02-11 09:01:00,
2013-02-11 03:12:00,36.0,31.0,29.44,SSW,203,11.0,24.0,81,0.00,,,0.60,,2013-02-11 09:12:00,
2013-02-11 03:21:00,35.0,30.0,29.43,SW,219,17.0,35.0,81,0.00,,,0.60,,2013-02-11 09:21:00,
2013-02-11 03:32:00,35.0,30.0,29.43,SSW,199,16.0,30.0,81,0.00,,,0.60,,2013-02-11 09:32:00,
2013-02-11 03:41:00,35.0,30.0,29.43,SSW,199,16.0,30.0,81,0.00,,,0.60,,2013-02-11 09:41:00,
2013-02-11 03:52:00,35.0,29.0,29.43,SW,217,23.0,34.0,77,0.00,,,0.60,,2013-02-11 09:52:00,
2013-02-11 04:01:00,35.0,29.0,29.43,SSW,204,14.0,34.0,77,0.00,,,0.60,,2013-02-11 10:01:00,
2013-02-11 04:11:00,35.0,29.0,29.43,SSW,204,14.0,34.0,77,0.00,,,0.60,,2013-02-11 10:11:00,
2013-02-11 04:21:00,34.0,28.0,29.44,SW,224,17.0,29.0,78,0.04,,,0.64,,2013-02-11 10:21:00,
2013-02-11 04:31:00,34.0,28.0,29.45,SW,219,19.0,32.0,78,0.04,,,0.64,,2013-02-11 10:31:00,
2013-02-11 04:42:00,34.0,28.0,29.45,SW,219,19.0,32.0,78,0.04,,,0.64,,2013-02-11 10:42:00,
2013-02-11 04:51:00,34.0,28.0,29.45,SW,215,24.0,37.0,77,0.04,,,0.64,,2013-02-11 10:51:00,
2013-02-11 05:01:00,34.0,27.0,29.45,SW,230,17.0,37.0,76,0.01,,,0.65,,2013-02-11 11:01:00,
2013-02-11 05:11:00,34.0,27.0,29.45,SW,230,17.0,37.0,76,0.01,,,0.65,,2013-02-11 11:11:00,
2013-02-11 05:22:00,34.0,28.0,29.44,SSW,194,20.0,30.0,78,0.01,,,0.65,,2013-02-11 11:22:00,
2013-02-11 05:32:00,33.0,26.0,29.45,SW,220,23.0,34.0,75,0.01,,,0.65,,2013-02-11 11:32:00,
2013-02-11 05:42:00,33.0,27.0,29.46,SW,216,17.0,33.0,77,0.01,,,0.65,,2013-02-11 11:42:00,
2013-02-11 05:52:00,33.0,27.0,29.46,SW,216,17.0,33.0,77,0.01,,,0.65,,2013-02-11 11:52:00,
2013-02-11 06:03:00,33.0,27.0,29.46,SW,216,17.0,33.0,77,0.01,,,0.65,,2013-02-11 12:03:00,
2013-02-11 06:12:00,33.0,27.0,29.46,SW,216,17.0,33.0,77,0.01,,,0.65,,2013-02-11 12:12:00,
2013-02-11 06:22:00,32.0,27.0,29.46,SW,217,12.0,28.0,81,0.00,,,0.65,,2013-02-11 12:22:00,
2013-02-11 06:32:00,32.0,27.0,29.47,SW,231,10.0,23.0,81,0.00,,,0.65,,2013-02-11 12:32:00,
2013-02-11 06:42:00,33.0,27.0,29.47,SW,225,15.0,39.0,77,0.00,,,0.65,,2013-02-11 12:42:00,
2013-02-11 06:52:00,33.0,27.0,29.47,SW,225,15.0,39.0,77,0.00,,,0.65,,2013-02-11 12:52:00,
2013-02-11 07:01:00,33.0,27.0,29.48,SW,225,15.0,32.0,78,0.00,,,0.65,,2013-02-11 13:01:00,
2013-02-11 07:11:00,33.0,27.0,29.49,SW,233,16.0,35.0,77,0.00,,,0.65,,2013-02-11 13:11:00,
2013-02-11 07:22:00,33.0,27.0,29.49,SW,233,16.0,35.0,77,0.00,,,0.65,,2013-02-11 13:22:00,
2013-02-11 07:32:00,33.0,27.0,29.49,SW,229,18.0,31.0,78,0.00,,,0.65,,2013-02-11 13:32:00,
2013-02-11 07:42:00,33.0,27.0,29.49,SW,229,18.0,31.0,78,0.00,,,0.65,,2013-02-11 13:42:00,
2013-02-11 07:52:00,32.0,26.0,29.50,SW,222,14.0,27.0,78,0.00,,,0.65,,2013-02-11 13:52:00,
2013-02-11 08:02:00,32.0,26.0,29.51,SW,226,14.0,31.0,78,0.00,,,0.65,,2013-02-11 14:02:00,
2013-02-11 08:11:00,32.0,26.0,29.51,SW,226,14.0,31.0,78,0.00,,,0.65,,2013-02-11 14:11:00,
2013-02-11 08:22:00,32.0,26.0,29.51,SW,233,11.0,28.0,79,0.00,,,0.65,,2013-02-11 14:22:00,
2013-02-11 08:32:00,32.0,26.0,29.51,SW,233,11.0,28.0,79,0.00,,,0.65,,2013-02-11 14:32:00,
2013-02-11 08:42:00,32.0,26.0,29.51,SW,233,11.0,28.0,79,0.00,,,0.65,,2013-02-11 14:42:00,
2013-02-11 08:52:00,32.0,26.0,29.51,SW,233,11.0,28.0,79,0.00,,,0.65,,2013-02-11 14:52:00,
2013-02-11 09:02:00,32.0,28.0,29.52,WSW,246,14.0,30.0,84,0.00,,,0.65,,2013-02-11 15:02:00,
2013-02-11 09:11:00,32.0,28.0,29.52,WSW,246,14.0,30.0,84,0.00,,,0.65,,2013-02-11 15:11:00,
2013-02-11 09:22:00,32.0,28.0,29.52,WSW,246,14.0,30.0,84,0.00,,,0.65,,2013-02-11 15:22:00,
2013-02-11 09:32:00,32.0,28.0,29.52,WSW,246,14.0,30.0,84,0.00,,,0.65,,2013-02-11 15:32:00,
2013-02-11 09:42:00,32.0,27.0,29.54,SW,234,20.0,34.0,80,0.00,,,0.65,,2013-02-11 15:42:00,
2013-02-11 09:52:00,32.0,27.0,29.54,SW,234,20.0,34.0,80,0.00,,,0.65,,2013-02-11 15:52:00,
2013-02-11 10:02:00,32.0,27.0,29.55,SW,230,15.0,29.0,81,0.00,,,0.65,,2013-02-11 16:02:00,
2013-02-11 10:11:00,32.0,27.0,29.56,SW,230,11.0,27.0,81,0.00,,,0.65,,2013-02-11 16:11:00,
2013-02-11 10:22:00,32.0,27.0,29.56,SW,230,11.0,27.0,81,0.00,,,0.65,,2013-02-11 16:22:00,
2013-02-11 10:32:00,32.0,27.0,29.57,WSW,244,13.0,30.0,81,0.00,,,0.65,,2013-02-11 16:32:00,
2013-02-11 10:42:00,32.0,27.0,29.58,WSW,243,12.0,28.0,81,0.00,,,0.65,,2013-02-11 16:42:00,
2013-02-11 10:52:00,32.0,27.0,29.58,WSW,243,12.0,28.0,81,0.00,,,0.65,,2013-02-11 16:52:00,
2013-02-11 11:01:00,33.0,28.0,29.59,SW,231,13.0,29.0,80,0.00,,,0.60,,2013-02-11 17:01:00,
2013-02-11 11:11:00,33.0,28.0,29.59,SW,231,13.0,29.0,80,0.00,,,0.60,,2013-02-11 17:11:00,
2013-02-11 11:21:00,33.0,27.0,29.60,WSW,257,17.0,36.0,79,0.00,,,0.52,,2013-02-11 17:21:00,
2013-02-11 11:32:00,33.0,27.0,29.61,SW,232,8.0,36.0,79,0.00,,,0.48,,2013-02-11 17:32:00,
2013-02-11 11:42:00,33.0,27.0,29.61,SW,232,8.0,36.0,79,0.00,,,0.48,,2013-02-11 17:42:00,
2013-02-11 11:53:00,33.0,27.0,29.61,WSW,254,19.0,30.0,79,0.00,,,0.44,,2013-02-11 17:53:00,
2013-02-11 12:01:00,33.0,27.0,29.62,West,260,8.0,30.0,79,0.00,,,0.39,,2013-02-11 18:01:00,
2013-02-11 12:11:00,33.0,27.0,29.62,West,260,8.0,30.0,79,0.00,,,0.39,,2013-02-11 18:11:00,
2013-02-11 12:21:00,33.0,27.0,29.62,West,260,8.0,30.0,79,0.00,,,0.39,,2013-02-11 18:21:00,
2013-02-11 12:32:00,33.0,27.0,29.63,West,266,19.0,32.0,78,0.00,,,0.30,,2013-02-11 18:32:00,
2013-02-11 12:42:00,32.0,26.0,29.65,SW,234,8.0,27.0,79,0.00,,,0.25,,2013-02-11 18:42:00,
2013-02-11 12:53:00,32.0,26.0,29.65,SW,234,8.0,27.0,79,0.00,,,0.25,,2013-02-11 18:53:00,
2013-02-11 13:02:00,33.0,27.0,29.65,SW,226,10.0,21.0,79,0.00,,,0.22,,2013-02-11 19:02:00,
2013-02-11 13:11:00,33.0,27.0,29.65,SW,226,10.0,21.0,79,0.00,,,0.22,,2013-02-11 19:11:00,
2013-02-11 13:21:00,33.0,27.0,29.65,SW,226,10.0,21.0,79,0.00,,,0.22,,2013-02-11 19:21:00,
2013-02-11 13:32:00,32.0,26.0,29.67,WSW,254,13.0,27.0,77,0.00,,,0.20,,2013-02-11 19:32:00,
2013-02-11 13:41:00,32.0,26.0,29.67,WSW,254,13.0,27.0,77,0.00,,,0.20,,2013-02-11 19:41:00,
2013-02-11 13:51:00,32.0,26.0,29.68,WSW,248,15.0,27.0,77,0.00,,,0.19,,2013-02-11 19:51:00,
2013-02-11 14:01:00,31.0,25.0,29.69,WSW,243,11.0,25.0,77,0.00,,,0.18,,2013-02-11 20:01:00,
2013-02-11 14:11:00,31.0,25.0,29.70,SW,234,8.0,32.0,77,0.00,,,0.17,,2013-02-11 20:11:00,
2013-02-11 14:21:00,31.0,25.0,29.70,SW,234,8.0,32.0,77,0.00,,,0.17,,2013-02-11 20:21:00,
2013-02-11 14:32:00,31.0,25.0,29.70,SW,234,8.0,32.0,77,0.00,,,0.17,,2013-02-11 20:32:00,
2013-02-11 14:42:00,31.0,25.0,29.72,WSW,241,10.0,28.0,77,0.00,,,0.15,,2013-02-11 20:42:00,
2013-02-11 14:52:00,31.0,25.0,29.72,WSW,241,10.0,28.0,77,0.00,,,0.15,,2013-02-11 20:52:00,
2013-02-11 15:02:00,30.0,24.0,29.73,SW,236,11.0,29.0,77,0.00,,,0.13,,2013-02-11 21:02:00,
2013-02-11 15:11:00,30.0,24.0,29.73,SW,236,11.0,29.0,77,0.00,,,0.13,,2013-02-11 21:11:00,
2013-02-11 15:21:00,30.0,24.0,29.73,SW,236,11.0,29.0,77,0.00,,,0.13,,2013-02-11 21:21:00,
2013-02-11 15:32:00,30.0,24.0,29.73,SW,236,11.0,29.0,77,0.00,,,0.13,,2013-02-11 21:32:00,
2013-02-11 15:42:00,30.0,24.0,29.75,WSW,247,7.0,21.0,77,0.00,,,0.11,,2013-02-11 21:42:00,
2013-02-11 15:52:00,30.0,24.0,29.75,WSW,247,7.0,21.0,77,0.00,,,0.11,,2013-02-11 21:52:00,
2013-02-11 16:02:00,30.0,24.0,29.76,WSW,245,9.0,17.0,77,0.00,,,0.11,,2013-02-11 22:02:00,
2013-02-11 16:11:00,30.0,24.0,29.76,WSW,245,9.0,17.0,77,0.00,,,0.11,,2013-02-11 22:11:00,
2013-02-11 16:22:00,30.0,24.0,29.76,WSW,245,9.0,17.0,77,0.00,,,0.11,,2013-02-11 22:22:00,
2013-02-11 16:32:00,30.0,23.0,29.78,WSW,251,5.0,17.0,76,0.00,,,0.11,,2013-02-11 22:32:00,
2013-02-11 16:42:00,30.0,23.0,29.78,WSW,251,5.0,17.0,76,0.00,,,0.11,,2013-02-11 22:42:00,
2013-02-11 16:52:00,30.0,23.0,29.78,WSW,251,5.0,17.0,76,0.00,,,0.11,,2013-02-11 22:52:00,
2013-02-11 17:02:00,30.0,22.0,29.80,WSW,256,9.0,23.0,72,0.00,,,0.09,,2013-02-11 23:02:00,
2013-02-11 17:11:00,30.0,22.0,29.80,WSW,256,9.0,23.0,72,0.00,,,0.09,,2013-02-11 23:11:00,
2013-02-11 17:21:00,30.0,22.0,29.81,West,281,7.0,17.0,73,0.00,,,0.08,,2013-02-11 23:21:00,
2013-02-11 17:32:00,30.0,22.0,29.82,West,275,11.0,23.0,72,0.00,,,0.06,,2013-02-11 23:32:00,
2013-02-11 17:42:00,30.0,22.0,29.82,West,275,11.0,23.0,72,0.00,,,0.06,,2013-02-11 23:42:00,
2013-02-11 17:52:00,29.0,21.0,29.83,West,260,9.0,23.0,73,0.00,,,0.06,,2013-02-11 23:52:00,
2013-02-11 18:01:00,29.0,21.0,29.84,West,260,10.0,21.0,73,0.00,,,0.06,,2013-02-12 00:01:00,
2013-02-11 18:11:00,29.0,21.0,29.84,West,260,10.0,21.0,73,0.00,,,0.06,,2013-02-12 00:11:00,
2013-02-11 18:21:00,29.0,21.0,29.85,West,267,11.0,22.0,72,0.00,,,0.06,,2013-02-12 00:21:00,
2013-02-11 18:32:00,29.0,21.0,29.86,West,274,7.0,26.0,72,0.00,,,0.06,,2013-02-12 00:32:00,
2013-02-11 18:42:00,29.0,21.0,29.86,West,274,7.0,26.0,72,0.00,,,0.06,,2013-02-12 00:42:00,
2013-02-11 18:52:00,29.0,21.0,29.87,West,264,6.0,15.0,72,0.00,,,0.06,,2013-02-12 00:52:00,
2013-02-11 19:02:00,29.0,21.0,29.88,WNW,282,8.0,17.0,72,0.00,,,0.06,,2013-02-12 01:02:00,
2013-02-11 19:11:00,29.0,21.0,29.88,WNW,282,8.0,17.0,72,0.00,,,0.06,,2013-02-12 01:11:00,
2013-02-11 19:21:00,29.0,21.0,29.88,WNW,282,8.0,17.0,72,0.00,,,0.06,,2013-02-12 01:21:00,
2013-02-11 19:32:00,28.0,21.0,29.88,West,270,5.0,14.0,74,0.00,,,0.06,,2013-02-12 01:32:00,
2013-02-11 19:42:00,28.0,20.0,29.88,WNW,287,8.0,21.0,73,0.00,,,0.06,,2013-02-12 01:42:00,
2013-02-11 19:51:00,28.0,20.0,29.88,WNW,287,8.0,21.0,73,0.00,,,0.06,,2013-02-12 01:51:00,
2013-02-11 20:01:00,28.0,20.0,29.88,WNW,287,8.0,21.0,73,0.00,,,0.06,,2013-02-12 02:01:00,
2013-02-11 20:11:00,28.0,21.0,29.90,West,270,4.0,23.0,74,0.00,,,0.06,,2013-02-12 02:11:00,
2013-02-11 20:21:00,28.0,21.0,29.90,West,270,4.0,23.0,74,0.00,,,0.06,,2013-02-12 02:21:00,
2013-02-11 20:32:00,28.0,20.0,29.90,West,261,6.0,17.0,73,0.00,,,0.06,,2013-02-12 02:32:00,
2013-02-11 20:42:00,28.0,20.0,29.90,West,261,6.0,17.0,73,0.00,,,0.06,,2013-02-12 02:42:00,
2013-02-11 20:52:00,28.0,21.0,29.90,West,264,5.0,17.0,74,0.00,,,0.06,,2013-02-12 02:52:00,
2013-02-11 21:02:00,28.0,21.0,29.91,West,269,7.0,15.0,74,0.00,,,0.06,,2013-02-12 03:02:00,
2013-02-11 21:11:00,28.0,21.0,29.91,West,269,7.0,15.0,74,0.00,,,0.06,,2013-02-12 03:11:00,
2013-02-11 21:21:00,28.0,21.0,29.91,West,269,7.0,15.0,74,0.00,,,0.06,,2013-02-12 03:21:00,
2013-02-11 21:31:00,28.0,21.0,29.92,West,267,10.0,17.0,74,0.00,,,0.06,,2013-02-12 03:31:00,
2013-02-11 21:42:00,28.0,20.0,29.92,West,264,8.0,16.0,73,0.00,,,0.06,,2013-02-12 03:42:00,
2013-02-11 21:52:00,28.0,20.0,29.92,West,264,8.0,16.0,73,0.00,,,0.06,,2013-02-12 03:52:00,
2013-02-11 22:01:00,27.0,20.0,29.92,West,275,9.0,19.0,74,0.00,,,0.05,,2013-02-12 04:01:00,
2013-02-11 22:11:00,27.0,20.0,29.92,West,275,9.0,19.0,74,0.00,,,0.05,,2013-02-12 04:11:00,
2013-02-11 22:21:00,27.0,20.0,29.92,West,270,8.0,20.0,75,0.00,,,0.05,,2013-02-12 04:21:00,
2013-02-11 22:31:00,27.0,20.0,29.93,West,267,5.0,12.0,76,0.00,,,0.05,,2013-02-12 04:31:00,
2013-02-11 22:41:00,27.0,20.0,29.93,West,267,5.0,12.0,76,0.00,,,0.05,,2013-02-12 04:41:00,
2013-02-11 22:51:00,27.0,20.0,29.93,West,261,8.0,17.0,76,0.00,,,0.05,,2013-02-12 04:51:00,
2013-02-11 23:01:00,27.0,20.0,29.93,West,267,7.0,16.0,76,0.00,,,0.05,,2013-02-12 05:01:00,
2013-02-11 23:11:00,27.0,20.0,29.93,WSW,248,6.0,20.0,75,0.00,,,0.05,,2013-02-12 05:11:00,
2013-02-11 23:21:00,27.0,20.0,29.93,WSW,248,6.0,20.0,75,0.00,,,0.05,,2013-02-12 05:21:00,
2013-02-11 23:31:00,27.0,20.0,29.95,West,280,10.0,21.0,75,0.00,,,0.05,,2013-02-12 05:31:00,
2013-02-11 23:42:00,27.0,20.0,29.95,West,280,10.0,21.0,75,0.00,,,0.05,,2013-02-12 05:42:00,
2013-02-11 23:52:00,27.0,20.0,29.95,West,280,10.0,21.0,75,0.00,,,0.05,,2013-02-12 05:52:00,